This is the latest recevied weather packets stored in our database for station/object KE8WMS. If no packets are shown the sender has not sent any weather packets the latest 10 day(s).
| Time | Temp. | Humidity | Pressure | Rain* | Wind** | Luminosity | Snow |
|---|---|---|---|---|---|---|---|
| 1787937326 | 22.78° C | 70% | 1017.5 hPa | 0 mm | - | 710 W/m² | - |
| 1787937021 | 22.22° C | 71% | 1017.3 hPa | 0 mm | - | 710 W/m² | - |
| 1787936720 | 22.78° C | 66% | 1017.3 hPa | 0 mm | - | 710 W/m² | - |
| 1787936416 | 22.78° C | 70% | 1017.6 hPa | 0 mm | - | 706 W/m² | - |
| 1787936115 | 22.78° C | 70% | 1017.5 hPa | 0 mm | - | 704 W/m² | - |
| 1787935811 | 22.78° C | 68% | 1017.5 hPa | 0 mm | - | 703 W/m² | - |
| 1787935507 | 22.78° C | 71% | 1017.7 hPa | 0 mm | - | 701 W/m² | - |
| 1787935202 | 22.78° C | 69% | 1017.5 hPa | 0 mm | - | 695 W/m² | - |
| 1787934898 | 22.22° C | 73% | 1017.5 hPa | 0 mm | - | 692 W/m² | - |
| 1787934597 | 22.22° C | 72% | 1017.3 hPa | 0 mm | - | 687 W/m² | - |
| 1787934292 | 22.22° C | 74% | 1017.6 hPa | 0 mm | - | 681 W/m² | - |
| 1787933991 | 22.22° C | 73% | 1017.5 hPa | 0 mm | - | 676 W/m² | - |
| 1787933690 | 22.22° C | 75% | 1017.6 hPa | 0 mm | - | 672 W/m² | - |
| 1787933385 | 22.22° C | 75% | 1017.2 hPa | 0 mm | - | 670 W/m² | - |
| 1787933080 | 21.67° C | 76% | 1017 hPa | 0 mm | - | 269 W/m² | - |
| 1787932778 | 22.22° C | 74% | 1017.5 hPa | 0 mm | - | 655 W/m² | - |
| 1787932479 | 22.22° C | 74% | 1016.9 hPa | 0 mm | - | 676 W/m² | - |
| 1787932174 | 22.78° C | 72% | 1017.1 hPa | 0 mm | - | 635 W/m² | - |
| 1787931872 | 22.22° C | 73% | 1017 hPa | 0 mm | - | 627 W/m² | - |
| 1787931567 | 22.22° C | 72% | 1017 hPa | 0 mm | - | 620 W/m² | - |
| 1787931262 | 22.22° C | 73% | 1017.1 hPa | 0 mm | - | 618 W/m² | - |
| 1787930962 | 22.22° C | 71% | 1017.2 hPa | 0 mm | - | 597 W/m² | - |
| 1787930661 | 22.22° C | 73% | 1017.2 hPa | 0 mm | - | 592 W/m² | - |
| 1787930355 | 22.22° C | 72% | 1017.3 hPa | 0 mm | - | 581 W/m² | - |
| 1787930051 | 22.22° C | 72% | 1017.1 hPa | 0 mm | - | 570 W/m² | - |
* Rain latest hour (hover to see other rain measurements)
** Current wind speed in m/s (hover to see current wind gust speed)